Flag for Canada Weather past 2 weeks in Cape Dorset, Nunavut Territory, Canada

Now
41 °F

Scattered clouds.


Feels Like: 36 °F
Forecast: 37 / 49 °F
Wind: 8 mph from North

Location: Cape Dorset

Current Time: Aug 23, 2014 at 6:32:15 AM

Latest Report: Aug 23, 2014 at 6:00 AM


Visibility: 9 mi

Pressure: 30.10 "Hg

Humidity: 87%

Dew point: 37 °F

Location of Cape DorsetLocation

Historic Weather in Cape Dorset — Graph

°F

Cape Dorset temperature yesterday

Maximum temperature yesterday: 55 °F (at 9:00 AM)
Minimum temperature yesterday: 41 °F (at 12:00 AM)
Average temperature yesterday: 47 °F

Past Weeks' High & Low Weather Summary

 TemperatureHumidityPressure
High55 °F (Aug 22, 9:00 AM)100% (Aug 8, 9:00 AM)30.30 "Hg (Aug 8, 9:00 AM)
Low36 °F (Aug 16, 12:00 AM)47% (Aug 16, 5:00 PM)29.42 "Hg (Aug 11, 8:00 PM)
Average43 °F82%29.86 "Hg
* Reported Aug 8 5:04 AM — Aug 23 5:00 AM, Cape Dorset, Weather by CustomWeather, © 2014

Note: Actual official high and low records may vary slightly from our data, if they occured in-between our weather recording intervals... More about our weather records

Advertising

Cape Dorset weather history for previous 24 hours

 ConditionsComfort  
Time TempWeatherWind HumidityBarometerVisibility
5:00 AM
Aug 23
41 °FPartly sunny.6 mph87%30.09 "Hg9 mi
4:00 AM41 °FPassing clouds.8 mph87%30.08 "Hg9 mi
3:00 AM43 °FOvercast.5 mph87%30.07 "Hg9 mi
2:00 AM43 °FOvercast.6 mph87%30.07 "Hg9 mi
1:00 AM43 °FOvercast.10 mph87%30.05 "Hg9 mi
12:00 AM43 °FOvercast.13 mph87%30.04 "Hg9 mi
11:00 PM
Aug 22
43 °FOvercast.8 mph93%30.04 "Hg9 mi
10:00 PM43 °FLight rain. Overcast.9 mph93%30.02 "Hg9 mi
9:00 PM43 °FLight rain. Overcast.8 mph93%30.01 "Hg9 mi
8:00 PM43 °FLight rain. Mostly cloudy.3 mph93%30.01 "Hg9 mi
7:00 PM45 °FLight rain. More clouds than sun.7 mph87%29.98 "Hg9 mi
6:00 PM45 °FLight rain. Fog.13 mph93%29.97 "Hg6 mi
5:59 PM45 °FLight rain. Fog.13 mph93%29.97 "Hg6 mi
5:00 PM48 °FLight rain. Mostly cloudy.7 mph94%29.94 "Hg15 mi
4:00 PM50 °FOvercast.8 mph82%29.93 "Hg15 mi
3:00 PM50 °FPartly sunny.9 mph82%29.92 "Hg15 mi
2:00 PM48 °FBroken clouds.18 mph82%29.90 "Hg15 mi
1:00 PM50 °FBroken clouds.22 mph82%29.89 "Hg15 mi
12:00 PM52 °FPartly sunny.17 mph82%29.90 "Hg15 mi
11:00 AM55 °FPartly sunny.15 mph72%29.90 "Hg15 mi
10:00 AM54 °FPartly sunny.12 mph72%29.90 "Hg15 mi
9:00 AM55 °FBroken clouds.10 mph67%29.91 "Hg15 mi
8:00 AM54 °FBroken clouds.10 mph82%29.92 "Hg15 mi
7:00 AM54 °FPartly sunny.9 mph82%29.93 "Hg15 mi
6:00 AM50 °FOvercast.9 mph88%29.93 "Hg9 mi
Weather by CustomWeather, © 2014

See weather overviewHow to use our weather pages